Weather History for GMME - October, 2012

Change the Weather History Date:

Sunday, October 21, 2012

  Actual Average Record
Temperature  
Mean Temperature 65 °F -  
Max Temperature 75 °F 69 °F 87 °F (2014)
Min Temperature 55 °F 52 °F 48 °F (1998)
Growing Degree Days 15 (Base 50)    
Moisture  
Dew Point 52 °F    
Average Humidity 68    
Maximum Humidity 94    
Minimum Humidity 27    
Precipitation  
Precipitation 0.00 in 0.11 in - ()
Sea Level Pressure  
Sea Level Pressure 30.01 in    
Wind  
Wind Speed 4 mph ()    
Max Wind Speed 10 mph    
Max Gust Speed -    
Visibility 4.7 miles    
Events      
Averages and records for this station are not official NWS values.
T = Trace of Precipitation, MM = Missing Value Source: Averaged Metar Reports

Daily Weather History Graph

Daily Weather History Graph

Search for Another Location

Airport or City:

Trip Planner

Search our weather history database for the weather conditions in past years. The results will help you decide how hot, cold, wet, or windy it might be!

Date:

Astronomy

Oct. 21, 2012 Rise Set
Actual Time 6:37 AM WET 5:45 PM WET
Civil Twilight 6:11 AM WET 6:10 PM WET
Nautical Twilight 5:42 AM WET 6:39 PM WET
Astronomical Twilight 5:13 AM WET 7:08 PM WET
Moon 12:42 PM WET (10/21) 11:29 PM WET (10/21)
Length of Visible Light 11h 58m
Length of Day
11h 08m
Waxing Crescent, 43% of the Moon is Illuminated
Oct 21
Waxing Crescent
Oct 22
First Quarter
Oct 29
Full
Nov 7
Last Quarter
Nov 13
New

Hourly Weather History & Observations

Time (WET) Temp. Dew Point Humidity Pressure Visibility Wind Dir Wind Speed Gust Speed Precip Events Conditions
12:00 AM 58 °F 52 °F 73% 30.01 in 4 mi South 5.8 mph - -   Mostly Cloudy
12:00 AM 57.2 °F 51.8 °F 82% 30.01 in 3.7 mi South 5.8 mph - N/A   Mostly Cloudy
12:30 AM 57.2 °F 51.8 °F 82% 29.98 in 3.7 mi South 4.6 mph - N/A   Mostly Cloudy
1:00 AM 57.2 °F 51.8 °F 82% 30.01 in 3.7 mi SSE 3.5 mph - N/A   Mostly Cloudy
1:30 AM 59.0 °F 51.8 °F 77% 30.01 in - South 5.8 mph - N/A   Unknown
2:00 AM 57.2 °F 51.8 °F 82% 29.98 in 3.7 mi South 4.6 mph - N/A   Mostly Cloudy
2:30 AM 59.0 °F 51.8 °F 77% 29.98 in 3.7 mi South 4.6 mph - N/A   Mostly Cloudy
3:00 AM 59 °F 52 °F 71% 29.99 in 4 mi South 5.8 mph - -   Mostly Cloudy
3:00 AM 59.0 °F 51.8 °F 77% 29.98 in 3.7 mi South 5.8 mph - N/A   Mostly Cloudy
3:30 AM 59.0 °F 51.8 °F 77% 29.98 in - South 5.8 mph - N/A   Unknown
4:00 AM 57.2 °F 51.8 °F 82% 29.98 in 3.7 mi South 4.6 mph - N/A   Mostly Cloudy
4:30 AM 55.4 °F 50.0 °F 82% 29.98 in 3.7 mi Calm Calm - N/A   Mostly Cloudy
5:00 AM 55.4 °F 50.0 °F 82% 29.98 in 3.7 mi South 5.8 mph - N/A   Mostly Cloudy
5:30 AM 57.2 °F 51.8 °F 82% 30.01 in 3.7 mi South 5.8 mph - N/A   Mostly Cloudy
6:00 AM 56 °F 51 °F 80% 30.01 in 5 mi South 2.3 mph - -   Partly Cloudy
6:00 AM 55.4 °F 51.8 °F 88% 30.01 in 5.0 mi South 3.5 mph - N/A   Scattered Clouds
6:30 AM 55.4 °F 50.0 °F 82% 30.01 in 5.0 mi Variable 2.3 mph - N/A   Scattered Clouds
7:00 AM 55.4 °F 51.8 °F 88% 30.01 in 5.0 mi Calm Calm - N/A   Scattered Clouds
7:30 AM 59.0 °F 51.8 °F 77% 30.01 in 5.0 mi Calm Calm - N/A   Scattered Clouds
8:00 AM 62.6 °F 51.8 °F 68% 30.04 in 5.0 mi Calm Calm - N/A   Scattered Clouds
8:30 AM 64.4 °F 51.8 °F 64% 30.04 in 5.0 mi South 6.9 mph - N/A   Scattered Clouds
9:00 AM 67 °F 50 °F 44% 30.05 in 5 mi SSW 8.1 mph - -   Partly Cloudy
9:00 AM 66.2 °F 50.0 °F 56% 30.04 in 5.0 mi SSW 8.1 mph - N/A   Scattered Clouds
9:30 AM 68.0 °F 50.0 °F 52% 30.04 in 5.0 mi SSW 8.1 mph - N/A   Scattered Clouds
10:00 AM 69.8 °F 50.0 °F 49% 30.04 in 5.0 mi SSW 8.1 mph - N/A   Scattered Clouds
10:30 AM 71.6 °F 48.2 °F 43% 30.04 in 5.0 mi South 4.6 mph - N/A   Scattered Clouds
11:00 AM 71.6 °F 48.2 °F 43% 30.04 in 5.0 mi Variable 4.6 mph - N/A   Scattered Clouds
11:30 AM 73.4 °F 46.4 °F 38% 30.04 in 5.0 mi WSW 5.8 mph - N/A   Scattered Clouds
12:00 PM 73 °F 46 °F 27% 30.03 in 5 mi West 3.5 mph - -   Partly Cloudy
12:00 PM 73.4 °F 46.4 °F 38% 30.04 in 5.0 mi West 3.5 mph - N/A   Scattered Clouds
12:30 PM 75.2 °F 46.4 °F 36% 30.01 in 5.0 mi Variable 4.6 mph - N/A   Scattered Clouds
1:00 PM 73.4 °F 50.0 °F 44% 30.01 in 5.0 mi NW 5.8 mph - N/A   Scattered Clouds
1:30 PM 75.2 °F 50.0 °F 41% 29.98 in 5.0 mi NNW 9.2 mph - N/A   Scattered Clouds
2:00 PM 73.4 °F 48.2 °F 41% 29.98 in 5.0 mi North 9.2 mph - N/A   Scattered Clouds
2:30 PM 71.6 °F 51.8 °F 50% 30.01 in 5.0 mi North 10.4 mph - N/A   Mostly Cloudy
3:00 PM 73 °F 51 °F 35% 30.00 in 5 mi North 9.2 mph - -   Scattered Clouds
3:30 PM 71.6 °F 51.8 °F 50% 29.98 in 5.0 mi North 9.2 mph - N/A   Mostly Cloudy
4:00 PM 71.6 °F 50.0 °F 46% 30.01 in 5.0 mi North 10.4 mph - N/A   Mostly Cloudy
4:30 PM 69.8 °F 53.6 °F 56% 30.01 in 5.0 mi North 9.2 mph - N/A   Mostly Cloudy
5:00 PM 68.0 °F 55.4 °F 64% 30.01 in 5.0 mi NNE 8.1 mph - N/A   Mostly Cloudy
5:30 PM 68.0 °F 55.4 °F 64% 30.01 in 5.0 mi NNE 8.1 mph - N/A   Mostly Cloudy
6:00 PM 66 °F 56 °F 61% 30.01 in 5 mi NNE 5.8 mph - -   Scattered Clouds
6:00 PM 66.2 °F 55.4 °F 68% 30.01 in 5.0 mi NNE 5.8 mph - N/A   Mostly Cloudy
6:30 PM 64.4 °F 55.4 °F 73% 30.01 in 5.0 mi NE 4.6 mph - N/A   Mostly Cloudy
7:00 PM 62.6 °F 55.4 °F 77% 30.01 in 5.0 mi Calm Calm - N/A   Mostly Cloudy
7:30 PM 62.6 °F 57.2 °F 82% 30.04 in 5.0 mi Calm Calm - N/A   Mostly Cloudy
8:00 PM 60.8 °F 55.4 °F 82% 30.04 in 5.0 mi Calm Calm - N/A   Mostly Cloudy
8:30 PM 59.0 °F 55.4 °F 88% 30.04 in 5.0 mi Calm Calm - N/A   Mostly Cloudy
9:00 PM 58 °F 54 °F 84% 30.05 in 5 mi Calm Calm - -   Scattered Clouds
9:00 PM 57.2 °F 55.4 °F 94% 30.04 in 5.0 mi Calm Calm - N/A   Mostly Cloudy
9:30 PM 59.0 °F 55.4 °F 88% 30.04 in 5.0 mi East 1.2 mph - N/A   Mostly Cloudy
10:00 PM 60.8 °F 57.2 °F 88% 30.04 in 5.0 mi Calm Calm - N/A   Mostly Cloudy
10:30 PM 59.0 °F 57.2 °F 94% 30.04 in 5.0 mi Calm Calm - N/A   Mostly Cloudy
11:00 PM 59.0 °F 57.2 °F 94% 30.01 in 5.0 mi Calm Calm - N/A   Mostly Cloudy
11:30 PM 59.0 °F 55.4 °F 88% 30.01 in 5.0 mi Calm Calm - N/A   Mostly Cloudy